Location: Mount Cross
(36.6390°N, 79.4878°W)
Time: 09:41:38
(UTC+00:00)

Vanguard 1 - All Passes

Search period start: 29 March 2023 00:00
Search period end: 08 April 2023 00:00
Orbit: 648 x 3832 km, 34.3° (Epoch: 28 March)

Date Brightness Start Highest point End Pass type
(mag) Time Alt. Az. Time Alt. Az. Time Alt. Az.
29 Mar - 01:23:43 10° WNW 01:40:29 41° SW 01:50:25 10° SSE visible
29 Mar - 16:04:41 10° SSW 16:20:15 35° SE 16:39:30 10° E daylight
29 Mar - 18:23:49 10° SW 18:44:49 67° SSE 19:06:46 10° E daylight
29 Mar - 20:48:20 10° W 21:12:16 84° S 21:30:41 10° E daylight
29 Mar - 23:16:06 10° W 23:38:32 70° SSW 23:52:09 10° ESE daylight
30 Mar - 01:45:35 10° W 02:00:30 33° SW 02:09:52 10° SSE visible
30 Mar - 14:14:57 10° SE 14:19:06 11° ESE 14:23:36 10° ESE daylight
30 Mar - 16:23:56 10° SSW 16:40:30 43° SE 17:01:22 10° ENE daylight
30 Mar - 18:44:21 10° WSW 19:05:53 74° SSE 19:27:50 10° E daylight
30 Mar - 21:09:35 10° W 21:33:35 83° S 21:51:30 10° E daylight
30 Mar - 23:37:32 10° WNW 23:59:15 63° SSW 00:12:26 10° SE visible
31 Mar - 02:07:53 10° W 02:20:22 24° SW 02:28:50 10° S visible
31 Mar - 14:29:20 10° SSE 14:38:56 18° SE 14:50:41 10° E daylight
31 Mar - 16:43:36 10° SSW 17:00:55 51° SE 17:22:55 10° ENE daylight
31 Mar - 19:05:05 10° WSW 19:27:05 79° SSE 19:48:52 10° E daylight
31 Mar - 21:30:52 10° W 21:54:51 81° S 22:12:16 10° ESE daylight
31 Mar - 23:59:00 10° WNW 00:19:47 54° SW 00:32:31 10° SE visible
01 Apr - 02:31:05 10° W 02:40:06 17° SW 02:46:55 10° SSW visible
01 Apr - 14:46:57 10° S 14:58:48 25° SE 15:14:22 10° E daylight
01 Apr - 17:03:34 10° SW 17:21:32 59° SSE 17:44:16 10° ENE daylight
01 Apr - 19:26:00 10° WSW 19:48:23 82° S 20:09:53 10° E daylight
01 Apr - 21:52:10 10° W 22:16:01 77° SSW 22:32:55 10° ESE daylight
02 Apr - 00:20:36 10° WNW 00:40:06 45° SW 00:52:21 10° SSE visible
02 Apr - 02:57:48 10° WSW 02:59:46 10° WSW 03:01:37 10° SW visible
02 Apr - 15:05:35 10° S 15:18:46 33° SE 15:36:56 10° E daylight
02 Apr - 17:23:48 10° SW 17:42:20 67° SSE 18:05:32 10° E daylight
02 Apr - 19:47:01 10° W 20:09:46 84° S 20:30:53 10° E daylight
02 Apr - 22:13:29 10° W 22:37:02 71° SSW 22:53:26 10° ESE daylight
03 Apr - 00:42:25 10° WNW 01:00:13 36° SW 01:11:51 10° SSE visible
03 Apr - 15:24:48 10° SSW 15:38:51 41° SE 15:58:55 10° ENE daylight
03 Apr - 17:44:16 10° WSW 18:03:19 74° SSE 18:26:44 10° E daylight
03 Apr - 20:08:06 10° W 20:31:08 84° S 20:51:49 10° E daylight
03 Apr - 22:34:49 10° WNW 22:57:53 64° SSW 23:13:46 10° SE daylight
04 Apr - 01:04:38 10° W 01:20:09 28° SW 01:30:54 10° S visible
04 Apr - 13:31:18 10° SSE 13:38:20 15° ESE 13:47:00 10° E daylight
04 Apr - 15:44:26 10° SSW 15:59:08 50° SE 16:20:35 10° ENE daylight
04 Apr - 18:04:54 10° WSW 18:24:28 79° SSE 18:47:55 10° E daylight
04 Apr - 20:29:14 10° W 20:52:29 81° S 21:12:41 10° ESE daylight
04 Apr - 22:56:12 10° WNW 23:18:31 56° SSW 23:33:54 10° SE daylight
05 Apr - 01:27:36 10° W 01:39:58 20° SW 01:49:13 10° SSW visible
05 Apr - 13:48:34 10° S 13:58:04 22° SE 14:11:05 10° E daylight
05 Apr - 16:04:22 10° SW 16:19:36 58° SSE 16:42:03 10° ENE daylight
05 Apr - 18:25:40 10° WSW 18:45:44 82° S 19:09:05 10° E daylight
05 Apr - 20:50:24 10° W 21:13:45 78° SSW 21:33:27 10° ESE daylight
05 Apr - 23:17:42 10° WNW 23:38:57 47° SW 23:53:46 10° SSE daylight
06 Apr - 01:52:18 10° W 01:59:42 13° WSW 02:05:55 10° SSW visible
06 Apr - 14:07:07 10° S 14:17:54 30° SE 14:33:49 10° E daylight
06 Apr - 16:24:33 10° SW 16:40:17 66° SSE 17:03:26 10° E daylight
06 Apr - 18:46:33 10° W 19:07:06 84° S 19:30:14 10° E daylight
06 Apr - 21:11:34 10° W 21:34:51 72° SSW 21:54:03 10° ESE daylight
06 Apr - 23:39:26 10° WNW 23:59:12 39° SW 00:13:18 10° SSE visible
07 Apr - 14:26:18 10° SSW 14:37:52 38° SE 14:55:55 10° ENE daylight
07 Apr - 16:44:56 10° WSW 17:01:10 73° SSE 17:24:46 10° E daylight
07 Apr - 19:07:30 10° W 19:28:28 84° S 19:51:19 10° E daylight
07 Apr - 21:32:46 10° WNW 21:55:48 65° SSW 22:14:27 10° SE daylight
